Location: New Frontier Mobile Home Park
(32.8448°N, 116.9675°W)
Time: 23:05:49
(UTC+00:00)

GEOS 3 Rocket - Pass Details

Date: 14 July 2020
Orbit: 771 x 848 km, 115.0° (Epoch: 05 August)

Event Time Altitude Azimuth Distance (km) Brightness Sun altitude
Rises 05:29:58 0° 30° (NNE) 3,411 7.1 -25.6°
Reaches altitude 10° 05:32:18 10° 29° (NNE) 2,474 6.4 -25.9°
Maximum altitude 05:37:42 76° 305° (NW) 872 3.7 -26.6°
Enters shadow 05:39:54 37° 226° (SW) 1,285 4.5 -26.9°
